GW0425 Weather Reports


time (UTC)temp
C
wind
direction
speed
KPH
gust
KPH
rain 1hr
cm
rain 24hr
cm
rain mn
cm
humidity
%
barometer
mb
20260510054540 15 149 0.0 3.2 0.00 0.00 0.00 86 1007.7
20260510053036 15 0 0.0 3.2 0.00 0.00 0.00 87 1007.8
20260510051536 15 136 1.6 4.8 0.00 0.00 0.00 88 1007.9
20260510050043 15 141 1.6 6.4 0.00 0.00 0.00 89 1007.8
20260510044544 14 165 1.6 6.4 0.00 0.00 0.00 89 1007.7
20260510043038 14 129 3.2 6.4 0.00 0.00 0.00 90 1007.8
20260510041541 14 114 1.6 4.8 0.00 0.00 0.00 89 1007.6
20260510040050 15 0 1.6 6.4 0.00 0.00 0.00 88 1007.6
20260510034536 15 95 0.0 3.2 0.00 0.00 0.00 88 1007.7
20260510033042 15 0 0.0 1.6 0.00 0.00 0.00 87 1007.8
20260510031540 15 86 0.0 3.2 0.00 0.00 0.00 88 1008.0
20260510030050 15 96 0.0 4.8 0.00 0.00 0.00 87 1008.1
20260510024539 15 0 3.2 6.4 0.00 0.00 0.00 86 1008.3
20260510023036 15 152 3.2 6.4 0.00 0.00 0.00 85 1008.3
20260510021536 15 143 0.0 3.2 0.00 0.00 0.00 83 1008.5
20260510020039 15 147 0.0 3.2 0.00 0.00 0.00 83 1008.7
20260510014540 15 127 0.0 1.6 0.00 0.00 0.00 81 1008.7
20260510013039 16 105 0.0 6.4 0.00 0.00 0.00 80 1008.7
20260510011545 16 118 1.6 11.3 0.00 0.00 0.00 80 1008.7
20260510010038 16 138 4.8 12.9 0.00 0.00 0.00 79 1008.7
20260510004536 16 129 4.8 12.9 0.00 0.00 0.00 79 1008.9
20260510003043 16 104 3.2 12.9 0.00 0.00 0.00 80 1009.1
20260510001539 16 108 6.4 19.3 0.00 0.00 0.00 80 1009.3
20260510000043 16 94 8.0 20.9 0.00 0.00 0.00 79 1009.3
20260509234542 16 148 6.4 12.9 0.00 0.00 0.00 79 1009.5
20260509233037 16 149 6.4 17.7 0.00 0.00 0.00 81 1009.4
20260509231541 16 148 3.2 16.1 0.00 0.00 0.00 82 1009.4
20260509230043 16 81 6.4 24.1 0.00 0.00 0.00 80 1009.6
20260509224542 16 123 6.4 17.7 0.00 0.00 0.00 80 1009.4
20260509223039 16 137 3.2 17.7 0.00 0.00 0.00 79 1009.6
20260509221539 17 113 9.7 20.9 0.00 0.00 0.00 75 1009.7
20260509220040 18 139 9.7 27.4 0.00 0.00 0.00 74 1010.1
20260509214537 18 148 16.1 33.8 0.00 0.00 0.00 81 1010.1
20260509213048 18 0 0.0 1.6 0.00 0.00 0.00 85 1009.5
20260509211539 18 0 0.0 0.0 0.00 0.00 0.00 85 1009.3
20260509210049 18 0 0.0 1.6 0.00 0.00 0.00 85 1009.3
20260509204541 18 0 0.0 3.2 0.00 0.00 0.00 85 1009.5
20260509203040 18 0 0.0 1.6 0.00 0.00 0.00 85 1009.4
20260509201539 18 8 0.0 3.2 0.00 0.00 0.00 86 1009.6
20260509200040 18 0 0.0 4.8 0.00 0.00 0.00 88 1009.3
20260509194539 18 321 3.2 9.7 0.00 0.00 0.00 89 1009.3
20260509193042 18 320 6.4 11.3 0.00 0.00 0.00 90 1009.3
20260509191540 18 292 0.0 6.4 0.00 0.00 0.00 90 1009.3
20260509190043 19 321 1.6 4.8 0.00 0.00 0.00 89 1009.3
20260509184551 19 290 1.6 8.0 0.00 0.00 0.00 87 1009.2
20260509183039 20 307 1.6 4.8 0.00 0.00 0.00 82 1009.1
20260509181550 21 319 1.6 11.3 0.00 0.00 0.00 78 1009.0
20260509180043 22 0 0.0 1.6 0.00 0.00 0.00 62 1008.9
20260509174537 23 110 0.0 4.8 0.00 0.00 0.00 61 1008.7
20260509173042 23 105 0.0 3.2 0.00 0.00 0.00 59 1008.7
20260509171540 23 84 1.6 6.4 0.00 0.00 0.00 57 1008.7
20260509170046 23 104 1.6 6.4 0.00 0.00 0.00 57 1008.8
20260509164542 23 68 3.2 8.0 0.00 0.00 0.00 56 1008.6
20260509163040 23 0 1.6 9.7 0.00 0.00 0.00 57 1008.8
20260509161540 23 135 3.2 9.7 0.00 0.00 0.00 55 1009.0
20260509160039 24 155 3.2 11.3 0.00 0.00 0.00 54 1008.9
20260509154543 24 60 0.0 9.7 0.00 0.00 0.00 52 1008.8
20260509153042 24 120 3.2 12.9 0.00 0.00 0.00 54 1009.1
20260509151548 24 153 1.6 12.9 0.00 0.00 0.00 54 1009.2
20260509150046 24 122 4.8 12.9 0.00 0.00 0.00 56 1009.4
20260509144540 24 131 4.8 12.9 0.00 0.00 0.00 55 1009.6
20260509143039 23 82 3.2 9.7 0.00 0.00 0.00 54 1009.7
20260509141537 23 148 1.6 12.9 0.00 0.00 0.00 55 1009.7
20260509140048 23 131 6.4 12.9 0.00 0.00 0.00 57 1009.8
20260509134540 23 104 6.4 14.5 0.00 0.00 0.00 56 1010.0
20260509133038 23 104 6.4 20.9 0.00 0.00 0.00 56 1010.0
20260509131540 23 74 3.2 19.3 0.00 0.00 0.00 56 1010.0
20260509130038 23 109 6.4 14.5 0.00 0.00 0.00 58 1010.2
20260509124536 23 95 9.7 17.7 0.00 0.00 0.00 58 1010.3
20260509123036 23 103 8.0 19.3 0.00 0.00 0.00 60 1010.3
20260509121541 23 76 6.4 19.3 0.00 0.00 0.00 59 1010.3
20260509120043 23 150 8.0 19.3 0.00 0.00 0.00 60 1010.3
20260509114538 22 71 9.7 24.1 0.00 0.00 0.00 60 1010.2
20260509113036 22 101 9.7 16.1 0.00 0.00 0.00 61 1010.3
20260509111536 22 109 8.0 19.3 0.00 0.00 0.00 62 1010.6
20260509110043 22 127 9.7 17.7 0.00 0.00 0.00 62 1010.9
20260509104539 22 120 9.7 22.5 0.00 0.00 0.00 62 1011.0
20260509103039 22 120 6.4 20.9 0.00 0.00 0.00 66 1011.2
20260509101547 21 157 9.7 20.9 0.00 0.00 0.00 66 1011.1
20260509100043 21 122 6.4 17.7 0.00 0.00 0.00 68 1011.2
20260509094536 21 112 4.8 17.7 0.00 0.00 0.00 69 1011.2
20260509093036 21 91 8.0 16.1 0.00 0.00 0.00 70 1011.2
20260509091538 20 79 11.3 19.3 0.00 0.00 0.00 72 1011.2
20260509090042 20 134 9.7 17.7 0.00 0.00 0.00 73 1011.1
20260509084544 20 121 9.7 19.3 0.00 0.00 0.00 74 1010.9
20260509083041 19 177 9.7 20.9 0.00 0.00 0.00 75 1011.0
20260509081539 18 134 8.0 19.3 0.00 0.00 0.00 76 1011.0
20260509080043 18 122 6.4 16.1 0.00 0.00 0.00 78 1011.0
20260509074535 17 140 9.7 16.1 0.00 0.00 0.00 80 1011.2
20260509073112 17 117 6.4 20.9 0.00 0.00 0.00 80 1011.4
20260509071540 17 140 8.0 14.5 0.00 0.00 0.00 81 1011.5
20260509070044 16 136 3.2 12.9 0.00 0.00 0.00 85 1011.5
20260509064540 16 165 6.4 14.5 0.00 0.00 0.00 85 1011.6
20260509063037 15 115 6.4 16.1 0.00 0.00 0.00 86 1011.4
20260509061536 15 144 6.4 14.5 0.00 0.00 0.00 87 1011.3
20260509060046 15 148 3.2 11.3 0.00 0.00 0.00 86 1011.3